Location: Bacharowice
(49.9333°N, 19.5833°E)
Time: 00:10:44
(UTC+00:00)

NOSS 2-1 (E) - Pass Details

Date: 11 May 2021
Orbit: 431 x 1770 km, 63.3° (Epoch: 19 May)

Event Time Altitude Azimuth Distance (km) Brightness Sun altitude
Rises 23:02:40 0° 317° (NW) 2,880 7.6 -21.7°
Reaches altitude 10° 23:04:38 10° 318° (NW) 2,104 6.8 -21.7°
Maximum altitude 23:09:25 83° 47° (NE) 849 4.2 -21.6°
Enters shadow 23:14:21 19° 134° (SE) 2,248 6.1 -21.5°
